{"data":{"norad_id":43808,"intl_designator":"2018-099BC","name":"POLAR SCOUT YUKON","alt_names":[],"object_type":"PAYLOAD","status":"ACTIVE","operator":null,"country":"US","launch_date":"2018-12-03","launch_site_code":"AFWTR","launch_vehicle":null,"mission":null,"orbit_class":"UNKNOWN","rcs_meters":null,"size_class":null,"mass_kg":null,"dimensions":null,"purposes":[],"wikipedia_slug":null,"has_3d_model":false,"image_url":null,"decayed_at":null,"tle_current":{"epoch":"2026-05-25T03:53:26.575296Z","epoch_age_seconds":57119,"freshness":"FRESH","line1":"1 43808U 18099BC  26145.16211314  .00021632  00000+0  60016-3 0  9996","line2":"2 43808  97.4689 217.5737 0005738  64.4565 295.7271 15.36923572409978","mean_motion":15.36923572,"eccentricity":0.0005738,"inclination_deg":97.4689,"raan_deg":217.5737,"arg_perigee_deg":64.4565,"mean_anomaly_deg":295.7271,"bstar":0.00060016,"rev_number":40997,"period_min":93.693663512892,"perigee_km":451.29194116978,"apogee_km":459.13389353493,"semimajor_km":6833.3499173524,"source":"CELESTRAK","updated_at":"2026-05-25T13:37:55.900523Z"}}}